Tracking 25378 objects as of 22-Jan-2022
HD Live streaming from Space Station
objects crossing your sky now

STARLINK-1905

Track STARLINK-1905 now!
10-day predictions
STARLINK-1905 is classified as:


NORAD ID: 46746
Int'l Code: 2020-074H
Perigee: 553.0 km
Apogee: 555.7 km
Inclination: 53.1 °
Period: 95.6 minutes
Semi major axis: 6925 km
RCS: Unknown
Launch date: October 24, 2020
Source: United States (US)
Launch site: AIR FORCE EASTERN TEST RANGE (AFETR)
aabbcc
Your satellite tracking list
Your tracking list is empty




NASA's NSSDC Master Catalog

Two Line Element Set (TLE):
1 46746U 20074H   22021.82820606  .00000674  00000-0  64178-4 0  9996
2 46746  53.0536 250.6695 0001950  72.8527 287.2675 15.06395104 69411
Source of the keplerian elements: AFSPC